Weather History for Homer, AK

Change the Weather History Date:

Saturday, February 23, 2013

  Actual Average Record
Temperature  
Mean Temperature 30 °F -  
Max Temperature 34 °F 32 °F 46 °F (1943)
Min Temperature 25 °F 19 °F -1 °F (1971)
Degree Days  
Heating Degree Days 36    
Moisture  
Dew Point 25 °F    
Average Humidity 79    
Maximum Humidity 93    
Minimum Humidity 51    
Precipitation  
Precipitation 0.15 in - - ()
Sea Level Pressure  
Sea Level Pressure 29.18 in    
Wind  
Wind Speed 7 mph (ENE)    
Max Wind Speed 24 mph    
Max Gust Speed 30 mph    
Visibility 6 miles    
Events Fog , Snow    
Averages and records for this station are not official NWS values.
T = Trace of Precipitation, MM = Missing Value Source: NWS Daily Summary

Daily Weather History Graph

Daily Weather History Graph

Search for Another Location

Airport:

Trip Planner

Search our weather history database for the weather conditions in past years. The results will help you decide how hot, cold, wet, or windy it might be!

Date:

Astronomy

Feb. 23, 2013 Rise Set
Actual Time 8:19 AM AKST 6:20 PM AKST
Civil Twilight 7:37 AM AKST 7:02 PM AKST
Nautical Twilight 6:49 AM AKST 7:49 PM AKST
Astronomical Twilight 6:01 AM AKST 8:37 PM AKST
Moon 4:27 PM AKST (2/23) 7:05 AM AKST (2/23)
Length of Visible Light 11h 24m
Length of Day
10h 00m
Waxing Gibbous, 96% of the Moon is Illuminated
Feb 23
Waxing Gibbous
Feb 25
Full
Mar 4
Last Quarter
Mar 11
New
Mar 19
First Quarter

Hourly Weather History & Observations

Time (AKST) Temp. Windchill Dew Point Humidity Pressure Visibility Wind Dir Wind Speed Gust Speed Precip Events Conditions
12:53 AM 27.0 °F 19.5 °F 17.1 °F 66% 29.31 in 10.0 mi East 6.9 mph - N/A   Overcast
1:53 AM 28.0 °F 19.3 °F 16.0 °F 61% 29.28 in 10.0 mi ENE 9.2 mph - N/A   Overcast
2:53 AM 28.0 °F 16.5 °F 17.1 °F 63% 29.22 in 10.0 mi ENE 15.0 mph - N/A   Overcast
3:53 AM 28.9 °F 18.6 °F 12.9 °F 51% 29.18 in 10.0 mi NE 12.7 mph - N/A   Overcast
4:53 AM 30.0 °F 19.5 °F 17.1 °F 59% 29.13 in 10.0 mi ENE 13.8 mph - N/A   Overcast
5:53 AM 30.9 °F 22.2 °F 18.0 °F 59% 29.11 in 10.0 mi NE 10.4 mph - N/A   Mostly Cloudy
6:53 AM 33.1 °F 20.3 °F 21.9 °F 64% 29.08 in 10.0 mi East 24.2 mph 29.9 mph N/A   Overcast
7:53 AM 33.1 °F 21.9 °F 24.1 °F 70% 29.08 in 10.0 mi East 18.4 mph 25.3 mph N/A   Overcast
8:53 AM 33.1 °F 23.0 °F 25.0 °F 72% 29.07 in 10.0 mi East 15.0 mph - N/A   Overcast
9:53 AM 33.1 °F 28.7 °F 23.0 °F 66% 29.07 in 10.0 mi NE 4.6 mph - 0.00 in   Mostly Cloudy
10:53 AM 34.0 °F 31.0 °F 23.0 °F 64% 29.08 in 10.0 mi NE 3.5 mph - 0.00 in Snow Light Snow
11:53 AM 34.0 °F - 28.0 °F 79% 29.09 in 5.0 mi Calm Calm - 0.00 in Snow Light Snow
12:23 PM 33.8 °F - 28.4 °F 81% 29.10 in 0.8 mi Calm Calm - 0.01 in Snow Light Snow
12:30 PM 33.8 °F - 28.4 °F 81% 29.10 in 1.0 mi Calm Calm - 0.01 in Snow Light Snow
12:53 PM 32.0 °F - 30.0 °F 92% 29.11 in 1.0 mi Calm Calm - 0.04 in Snow Light Snow
1:53 PM 33.1 °F - 30.0 °F 89% 29.12 in 1.0 mi Calm Calm - 0.04 in Snow Light Snow
2:53 PM 33.1 °F - 30.9 °F 92% 29.13 in 1.5 mi Calm Calm - 0.02 in Snow Light Snow
3:31 PM 33.8 °F - 30.2 °F 87% 29.14 in 0.8 mi Calm Calm - 0.02 in Snow Light Snow
3:51 PM 33.8 °F - 30.2 °F 87% 29.15 in 1.0 mi Calm Calm - 0.03 in Snow Light Snow
3:53 PM 34.0 °F - 30.9 °F 89% 29.15 in 1.0 mi Calm Calm - 0.03 in Snow Light Snow
4:10 PM 33.8 °F 29.6 °F 30.2 °F 87% 29.16 in 1.5 mi SW 4.6 mph - 0.00 in Snow Light Snow
4:51 PM 33.8 °F 28.6 °F 28.4 °F 81% 29.17 in 3.0 mi WSW 5.8 mph - 0.02 in Snow Light Snow
4:53 PM 33.1 °F 26.9 °F 28.9 °F 85% 29.18 in 3.0 mi SW 6.9 mph - 0.02 in Snow Light Snow
5:53 PM 32.0 °F - 27.0 °F 82% 29.21 in 5.0 mi Calm Calm - 0.00 in Snow Light Snow
6:53 PM 30.9 °F - 27.0 °F 85% 29.22 in 10.0 mi Calm Calm - 0.00 in   Mostly Cloudy
7:53 PM 28.0 °F - 25.0 °F 88% 29.25 in 10.0 mi Calm Calm - N/A Fog Patches of Fog
8:53 PM 25.0 °F 20.7 °F 21.9 °F 88% 29.26 in 10.0 mi NE 3.5 mph - N/A Fog Patches of Fog
9:53 PM 26.1 °F 20.5 °F 23.0 °F 88% 29.27 in 10.0 mi NNE 4.6 mph - N/A   Scattered Clouds
10:53 PM 30.0 °F 23.2 °F 27.0 °F 88% 29.28 in 10.0 mi ENE 6.9 mph - N/A   Overcast
11:29 PM 30.2 °F - 28.4 °F 93% 29.29 in 2.5 mi Calm Calm - 0.00 in Snow Light Snow
11:37 PM 30.2 °F - 28.4 °F 93% 29.29 in 1.2 mi Calm Calm - 0.00 in Snow Light Snow
11:45 PM 30.2 °F 26.7 °F 28.4 °F 93% 29.29 in 3.0 mi North 3.5 mph - 0.00 in Snow Light Snow
11:53 PM 30.0 °F 25.2 °F 27.0 °F 88% 29.29 in 9.0 mi NNE 4.6 mph - 0.00 in   Overcast